GW2878 Weather Reports


time (UTC)temp
C
wind
direction
speed
KPH
gust
KPH
rain 1hr
cm
rain 24hr
cm
rain mn
cm
humidity
%
barometer
mb
20260906230007 28 142 4.8 4.8 0.00 0.00 0.00 23 1008.4
20260906225502 28 208 8.0 14.5 0.00 0.00 0.00 19 1008.1
20260906224958 28 171 16.1 22.5 0.00 0.00 0.00 21 1007.9
20260906224454 28 136 22.5 30.6 0.00 0.00 0.00 20 1007.4
20260906223950 30 208 14.5 20.9 0.00 0.00 0.00 19 1008.1
20260906223445 31 160 6.4 11.3 0.00 0.00 0.00 20 1008.5
20260906222943 31 193 6.4 6.4 0.00 0.00 0.00 20 1008.4
20260906222438 30 159 6.4 12.9 0.00 0.00 0.00 20 1008.6
20260906221935 29 342 6.4 16.1 0.00 0.00 0.00 21 1008.7
20260906221435 29 87 14.5 20.9 0.00 0.00 0.00 20 1008.6
20260906220931 29 313 1.6 16.1 0.00 0.00 0.00 21 1008.8
20260906220426 29 92 12.9 16.1 0.00 0.00 0.00 21 1008.8
20260906215924 28 28 11.3 12.9 0.00 0.00 0.00 25 1008.9
20260906215419 28 30 9.7 14.5 0.00 0.00 0.00 24 1009.1
20260906214918 28 30 8.0 11.3 0.00 0.00 0.00 24 1009.1
20260906214417 28 25 11.3 17.7 0.00 0.00 0.00 25 1009.1
20260906213910 28 65 9.7 12.9 0.00 0.00 0.00 25 1009.1
20260906213405 28 12 3.2 6.4 0.00 0.00 0.00 24 1009.3
20260906212903 28 53 8.0 16.1 0.00 0.00 0.00 23 1009.3
20260906212358 29 63 6.4 9.7 0.00 0.00 0.00 22 1009.4
20260906211858 28 93 14.5 17.7 0.00 0.00 0.00 23 1009.2
20260906211353 28 35 8.0 12.9 0.00 0.00 0.00 26 1009.4
20260906210848 28 24 8.0 14.5 0.00 0.00 0.00 24 1009.3
20260906210343 28 76 8.0 11.3 0.00 0.00 0.00 23 1009.3
20260906205838 27 24 11.3 20.9 0.00 0.00 0.00 26 1009.4
20260906205334 28 54 12.9 16.1 0.00 0.00 0.00 24 1009.9
20260906204830 28 50 11.3 14.5 0.00 0.00 0.00 25 1009.9
20260906204328 28 55 16.1 20.9 0.00 0.00 0.00 25 1009.9
20260906203822 28 44 12.9 14.5 0.00 0.00 0.00 26 1009.8
20260906203318 28 22 6.4 12.9 0.00 0.00 0.00 25 1009.9
20260906202815 28 60 9.7 14.5 0.00 0.00 0.00 25 1009.9
20260906202314 27 84 9.7 14.5 0.00 0.00 0.00 26 1009.9
20260906201809 28 8 9.7 14.5 0.00 0.00 0.00 28 1010.1
20260906201308 29 56 9.7 12.9 0.00 0.00 0.00 25 1010.1
20260906200804 27 53 9.7 16.1 0.00 0.00 0.00 26 1010.2
20260906200300 27 37 6.4 11.3 0.00 0.00 0.00 27 1010.1
20260906195755 27 21 9.7 12.9 0.00 0.00 0.00 28 1010.8
20260906195251 28 77 11.3 14.5 0.00 0.00 0.00 29 1010.7
20260906194747 28 323 1.6 4.8 0.00 0.00 0.00 26 1010.9
20260906194243 28 327 0.0 4.8 0.00 0.00 0.00 25 1011.1
20260906193737 28 56 8.0 11.3 0.00 0.00 0.00 26 1011.2
20260906193232 27 202 4.8 9.7 0.00 0.00 0.00 27 1011.3
20260906192728 27 330 3.2 3.2 0.00 0.00 0.00 27 1011.3
20260906192222 27 45 4.8 4.8 0.00 0.00 0.00 30 1011.3
20260906191721 27 120 4.8 6.4 0.00 0.00 0.00 27 1011.6
20260906191221 27 304 3.2 9.7 0.00 0.00 0.00 29 1011.6
20260906190716 26 265 6.4 9.7 0.00 0.00 0.00 28 1011.8
20260906190210 25 54 8.0 14.5 0.00 0.00 0.00 30 1011.6
20260906185710 25 99 11.3 12.9 0.00 0.00 0.00 29 1011.9
20260906185209 25 105 6.4 14.5 0.00 0.00 0.00 29 1011.8
20260906184703 25 75 8.0 16.1 0.00 0.00 0.00 31 1011.8
20260906184159 25 51 11.3 12.9 0.00 0.00 0.00 32 1012.2
20260906183654 24 84 9.7 12.9 0.00 0.00 0.00 33 1012.1
20260906183150 24 51 9.7 14.5 0.00 0.00 0.00 32 1012.1
20260906182650 24 74 9.7 12.9 0.00 0.00 0.00 33 1012.2
20260906182147 23 76 9.7 11.3 0.00 0.00 0.00 34 1012.5
20260906181642 23 35 8.0 12.9 0.00 0.00 0.00 33 1012.7
20260906181138 23 24 8.0 12.9 0.00 0.00 0.00 35 1012.6
20260906180632 23 21 8.0 12.9 0.00 0.00 0.00 33 1012.6
20260906180127 23 39 6.4 12.9 0.00 0.00 0.00 35 1013.1
20260906175625 23 70 8.0 12.9 0.00 0.00 0.00 35 1012.9
20260906175120 23 43 8.0 11.3 0.00 0.00 0.00 35 1013.2
20260906174619 23 29 4.8 11.3 0.00 0.00 0.00 34 1013.1
20260906174113 23 32 6.4 9.7 0.00 0.00 0.00 35 1013.4
20260906173608 22 37 6.4 12.9 0.00 0.00 0.00 35 1013.4
20260906173104 22 64 4.8 14.5 0.00 0.00 0.00 35 1013.6
20260906172558 22 23 8.0 12.9 0.00 0.00 0.00 35 1013.5
20260906172054 23 349 6.4 11.3 0.00 0.00 0.00 36 1013.8
20260906171553 22 12 9.7 12.9 0.00 0.00 0.00 35 1013.8
20260906171049 22 71 9.7 11.3 0.00 0.00 0.00 35 1014.0
20260906170545 21 12 6.4 9.7 0.00 0.00 0.00 36 1014.1
20260906170043 22 20 4.8 12.9 0.00 0.00 0.00 38 1014.0
20260906165540 21 37 9.7 11.3 0.00 0.00 0.00 37 1014.0
20260906165035 22 30 12.9 16.1 0.00 0.00 0.00 37 1014.1
20260906164535 21 47 6.4 11.3 0.00 0.00 0.00 40 1014.0
20260906164031 21 42 8.0 12.9 0.00 0.00 0.00 40 1013.9
20260906163526 21 70 8.0 12.9 0.00 0.00 0.00 41 1014.1
20260906163021 21 27 8.0 11.3 0.00 0.00 0.00 41 1014.1
20260906162518 21 12 11.3 12.9 0.00 0.00 0.00 39 1014.0
20260906162014 21 1 9.7 12.9 0.00 0.00 0.00 40 1014.1
20260906161509 21 25 8.0 14.5 0.00 0.00 0.00 41 1014.0
20260906161007 20 358 9.7 12.9 0.00 0.00 0.00 41 1014.2
20260906160501 21 12 14.5 14.5 0.00 0.00 0.00 41 1014.2
20260906155958 21 45 4.8 9.7 0.00 0.00 0.00 41 1014.0
20260906155457 21 10 8.0 11.3 0.00 0.00 0.00 41 1014.2
20260906154948 20 25 6.4 9.7 0.00 0.00 0.00 42 1014.2
20260906154443 20 4 6.4 9.7 0.00 0.00 0.00 42 1014.2
20260906153941 20 12 8.0 11.3 0.00 0.00 0.00 41 1014.1
20260906153440 20 19 6.4 6.4 0.00 0.00 0.00 42 1014.5
20260906152936 20 69 9.7 11.3 0.00 0.00 0.00 42 1014.1
20260906152436 20 12 4.8 6.4 0.00 0.00 0.00 43 1014.2
20260906151935 20 10 6.4 6.4 0.00 0.00 0.00 42 1014.2
20260906151430 19 333 1.6 4.8 0.00 0.00 0.00 41 1014.1
20260906150926 18 334 8.0 11.3 0.00 0.00 0.00 41 1014.1
20260906150420 17 296 8.0 12.9 0.00 0.00 0.00 41 1014.2
20260906145915 17 298 8.0 12.9 0.00 0.00 0.00 41 1014.5
20260906145414 16 295 9.7 11.3 0.00 0.00 0.00 42 1014.5
20260906144909 16 293 11.3 16.1 0.00 0.00 0.00 42 1014.5
20260906144403 16 291 9.7 16.1 0.00 0.00 0.00 43 1014.2
20260906143859 16 315 9.7 16.1 0.00 0.00 0.00 43 1014.6
20260906143354 15 289 9.7 12.9 0.00 0.00 0.00 44 1014.7
20260906142850 15 279 14.5 16.1 0.00 0.00 0.00 44 1014.6
20260906142345 14 295 14.5 22.5 0.00 0.00 0.00 44 1014.1
20260906141844 14 294 14.5 20.9 0.00 0.00 0.00 45 1014.3
20260906141333 13 300 14.5 17.7 0.00 0.00 0.00 45 1014.3
20260906140832 13 278 17.7 17.7 0.00 0.00 0.00 44 1014.2
20260906140328 13 282 14.5 17.7 0.00 0.00 0.00 46 1014.2
20260906135825 12 288 16.1 22.5 0.00 0.00 0.00 45 1014.3
20260906135320 12 318 12.9 20.9 0.00 0.00 0.00 46 1014.6
20260906134815 12 300 14.5 22.5 0.00 0.00 0.00 46 1014.5
20260906134311 12 297 19.3 22.5 0.00 0.00 0.00 46 1014.1
20260906133806 12 289 17.7 20.9 0.00 0.00 0.00 46 1014.2
20260906133301 12 283 14.5 22.5 0.00 0.00 0.00 45 1014.1
20260906132757 11 288 19.3 24.1 0.00 0.00 0.00 47 1014.2
20260906132252 11 325 14.5 22.5 0.00 0.00 0.00 47 1014.3
20260906131747 11 277 11.3 16.1 0.00 0.00 0.00 48 1014.0
20260906131242 11 308 14.5 20.9 0.00 0.00 0.00 48 1014.1
20260906130737 10 286 14.5 17.7 0.00 0.00 0.00 49 1014.0
20260906130232 10 298 11.3 17.7 0.00 0.00 0.00 49 1013.9
20260906125731 10 280 19.3 22.5 0.00 0.00 0.00 48 1014.0
20260906125229 11 283 17.7 20.9 0.00 0.00 0.00 47 1014.1
20260906124724 10 296 16.1 22.5 0.00 0.00 0.00 48 1014.2
20260906124220 11 311 19.3 20.9 0.00 0.00 0.00 47 1014.0
20260906123718 11 307 6.4 22.5 0.00 0.00 0.00 48 1014.1
20260906123214 10 303 12.9 17.7 0.00 0.00 0.00 48 1013.9
20260906122713 10 293 12.9 16.1 0.00 0.00 0.00 48 1013.8
20260906122209 10 297 9.7 12.9 0.00 0.00 0.00 48 1013.9
20260906121705 10 313 14.5 20.9 0.00 0.00 0.00 48 1014.0
20260906121201 10 291 17.7 22.5 0.00 0.00 0.00 47 1013.9
20260906120656 11 291 12.9 20.9 0.00 0.00 0.00 47 1013.6
20260906120153 11 311 16.1 22.5 0.00 0.00 0.00 48 1013.8
20260906115648 11 318 19.3 24.1 0.00 0.00 0.00 48 1013.6
20260906115143 11 304 14.5 20.9 0.00 0.00 0.00 47 1013.8
20260906114642 11 329 11.3 20.9 0.00 0.00 0.00 46 1013.8
20260906114138 11 297 14.5 17.7 0.00 0.00 0.00 45 1014.0
20260906113637 11 288 19.3 22.5 0.00 0.00 0.00 46 1013.8
20260906113132 11 275 16.1 20.9 0.00 0.00 0.00 46 1014.0
20260906112631 11 299 12.9 17.7 0.00 0.00 0.00 46 1013.9
20260906112129 12 321 14.5 20.9 0.00 0.00 0.00 43 1013.8
20260906111628 11 284 17.7 20.9 0.00 0.00 0.00 46 1013.8
20260906111123 11 288 12.9 16.1 0.00 0.00 0.00 48 1013.6
20260906110617 11 279 17.7 22.5 0.00 0.00 0.00 48 1013.8
20260906110112 12 276 9.7 16.1 0.00 0.00 0.00 47 1013.6
20260906105607 12 293 11.3 14.5 0.00 0.00 0.00 45 1013.6
20260906105103 11 309 9.7 16.1 0.00 0.00 0.00 45 1013.6
20260906104602 12 294 14.5 17.7 0.00 0.00 0.00 43 1013.6
20260906104056 11 296 14.5 16.1 0.00 0.00 0.00 44 1013.5
20260906103554 12 284 17.7 20.9 0.00 0.00 0.00 43 1013.4
20260906103050 12 295 12.9 14.5 0.00 0.00 0.00 41 1013.4
20260906102549 12 287 9.7 14.5 0.00 0.00 0.00 41 1013.4
20260906102045 12 302 9.7 16.1 0.00 0.00 0.00 42 1013.4
20260906101539 12 300 12.9 16.1 0.00 0.00 0.00 42 1013.6
20260906101033 12 298 12.9 16.1 0.00 0.00 0.00 42 1013.4
20260906100530 13 288 9.7 16.1 0.00 0.00 0.00 40 1013.4
20260906100030 14 336 4.8 9.7 0.00 0.00 0.00 41 1013.2
20260906095524 14 355 9.7 12.9 0.00 0.00 0.00 40 1013.4
20260906095020 13 336 3.2 9.7 0.00 0.00 0.00 41 1013.4
20260906094518 13 314 6.4 11.3 0.00 0.00 0.00 41 1013.2
20260906094015 13 293 11.3 17.7 0.00 0.00 0.00 40 1013.4
20260906093510 13 318 12.9 16.1 0.00 0.00 0.00 41 1013.3
20260906093005 13 307 6.4 11.3 0.00 0.00 0.00 42 1013.4
20260906092500 13 290 11.3 12.9 0.00 0.00 0.00 42 1013.1
20260906091955 13 304 9.7 20.9 0.00 0.00 0.00 42 1013.5
20260906091450 13 293 16.1 22.5 0.00 0.00 0.00 41 1013.4
20260906090947 13 293 16.1 22.5 0.00 0.00 0.00 40 1013.2
20260906090441 13 268 14.5 22.5 0.00 0.00 0.00 40 1013.1
20260906085936 13 282 11.3 16.1 0.00 0.00 0.00 40 1013.1
20260906085435 13 317 12.9 14.5 0.00 0.00 0.00 41 1012.9
20260906084934 13 281 12.9 16.1 0.00 0.00 0.00 40 1012.8
20260906084429 13 296 11.3 16.1 0.00 0.00 0.00 40 1012.8
20260906083928 13 292 14.5 14.5 0.00 0.00 0.00 40 1012.9
20260906083424 13 313 11.3 16.1 0.00 0.00 0.00 40 1012.7
20260906082923 13 279 12.9 14.5 0.00 0.00 0.00 40 1012.9
20260906082419 13 282 11.3 16.1 0.00 0.00 0.00 40 1012.8
20260906081914 13 305 11.3 16.1 0.00 0.00 0.00 40 1012.9
20260906081410 13 292 12.9 14.5 0.00 0.00 0.00 42 1012.7
20260906080906 15 283 11.3 14.5 0.00 0.00 0.00 41 1012.8
20260906080403 15 272 9.7 12.9 0.00 0.00 0.00 39 1012.9
20260906075901 15 320 6.4 9.7 0.00 0.00 0.00 39 1012.8
20260906075356 15 316 3.2 6.4 0.00 0.00 0.00 39 1012.9
20260906074852 15 304 9.7 12.9 0.00 0.00 0.00 38 1012.8
20260906074351 15 293 11.3 12.9 0.00 0.00 0.00 39 1012.8
20260906073850 15 301 9.7 12.9 0.00 0.00 0.00 39 1012.7
20260906073345 14 281 9.7 12.9 0.00 0.00 0.00 41 1012.8
20260906072842 15 285 11.3 12.9 0.00 0.00 0.00 39 1012.9
20260906072337 15 305 9.7 14.5 0.00 0.00 0.00 41 1012.9
20260906071833 16 279 8.0 11.3 0.00 0.00 0.00 39 1012.7
20260906071328 15 327 3.2 6.4 0.00 0.00 0.00 43 1012.8
20260906070824 14 303 4.8 9.7 0.00 0.00 0.00 43 1012.8
20260906070319 14 272 9.7 12.9 0.00 0.00 0.00 44 1012.8
20260906065814 16 282 6.4 9.7 0.00 0.00 0.00 39 1012.8
20260906065309 16 268 6.4 9.7 0.00 0.00 0.00 38 1012.9
20260906064805 16 283 6.4 9.7 0.00 0.00 0.00 41 1012.7
20260906064301 17 270 8.0 9.7 0.00 0.00 0.00 41 1012.8
20260906063755 17 287 8.0 9.7 0.00 0.00 0.00 41 1012.5
20260906063251 16 291 6.4 6.4 0.00 0.00 0.00 41 1012.7
20260906062746 16 299 8.0 9.7 0.00 0.00 0.00 41 1012.5
20260906062245 16 287 8.0 9.7 0.00 0.00 0.00 42 1012.7
20260906061741 17 246 4.8 6.4 0.00 0.00 0.00 56 1013.1
20260906061237 18 341 11.3 14.5 0.00 0.00 0.00 55 1012.9
20260906060732 18 3 8.0 9.7 0.00 0.00 0.00 37 1012.7
20260906060230 16 304 6.4 11.3 0.00 0.00 0.00 44 1012.8
20260906055725 16 286 9.7 11.3 0.00 0.00 0.00 46 1013.1
20260906055220 15 274 6.4 11.3 0.00 0.00 0.00 47 1013.2
20260906054715 16 278 6.4 12.9 0.00 0.00 0.00 50 1012.9
20260906054210 19 356 1.6 3.2 0.00 0.00 0.00 36 1012.9
20260906053707 18 22 3.2 4.8 0.00 0.00 0.00 38 1012.8
20260906053202 17 341 1.6 3.2 0.00 0.00 0.00 48 1012.9
20260906052657 16 2 4.8 9.7 0.00 0.00 0.00 42 1012.8
20260906052154 17 12 16.1 16.1 0.00 0.00 0.00 56 1012.9
20260906051650 18 332 0.0 1.6 0.00 0.00 0.00 36 1012.7
20260906051149 18 303 3.2 3.2 0.00 0.00 0.00 37 1012.9
20260906050645 18 344 1.6 1.6 0.00 0.00 0.00 37 1012.7
20260906050140 18 294 1.6 3.2 0.00 0.00 0.00 39 1012.9
20260906045638 17 293 3.2 4.8 0.00 0.00 0.00 39 1012.6
20260906045134 16 40 3.2 9.7 0.00 0.00 0.00 46 1012.7
20260906044630 16 252 3.2 4.8 0.00 0.00 0.00 47 1012.7
20260906044125 20 283 1.6 3.2 0.00 0.00 0.00 30 1012.7
20260906043621 19 329 1.6 1.6 0.00 0.00 0.00 32 1012.6
20260906043116 18 328 3.2 3.2 0.00 0.00 0.00 40 1012.5
20260906042615 18 248 0.0 1.6 0.00 0.00 0.00 45 1012.5
20260906042110 19 5 1.6 3.2 0.00 0.00 0.00 35 1012.4
20260906041606 19 326 4.8 4.8 0.00 0.00 0.00 33 1012.4
20260906041100 18 335 0.0 1.6 0.00 0.00 0.00 42 1012.4
20260906040555 19 334 0.0 3.2 0.00 0.00 0.00 43 1012.5
20260906040046 19 324 3.2 3.2 0.00 0.00 0.00 52 1012.4
20260906035541 20 341 3.2 3.2 0.00 0.00 0.00 48 1012.1
20260906035037 20 326 3.2 4.8 0.00 0.00 0.00 46 1012.4
20260906034536 19 326 1.6 3.2 0.00 0.00 0.00 54 1012.5
20260906034031 19 343 4.8 4.8 0.00 0.00 0.00 55 1012.4
20260906033526 20 341 4.8 4.8 0.00 0.00 0.00 60 1012.5
20260906033022 20 351 4.8 6.4 0.00 0.00 0.00 57 1012.4
20260906032518 22 310 3.2 4.8 0.00 0.00 0.00 29 1012.4
20260906032013 21 318 4.8 4.8 0.00 0.00 0.00 29 1012.0
20260906031508 22 321 3.2 4.8 0.00 0.00 0.00 28 1012.2
20260906031003 22 312 4.8 6.4 0.00 0.00 0.00 27 1012.4
20260906030457 23 314 3.2 4.8 0.00 0.00 0.00 26 1012.2
20260906025951 23 301 3.2 4.8 0.00 0.00 0.00 26 1012.2
20260906025446 22 311 4.8 4.8 0.00 0.00 0.00 27 1012.1
20260906024945 23 304 3.2 4.8 0.00 0.00 0.00 27 1012.1
20260906024444 23 325 3.2 4.8 0.00 0.00 0.00 26 1012.1
20260906023939 23 294 3.2 4.8 0.00 0.00 0.00 26 1012.1
20260906023435 23 310 4.8 6.4 0.00 0.00 0.00 25 1011.9
20260906022930 24 297 3.2 4.8 0.00 0.00 0.00 25 1011.9
20260906022425 25 263 3.2 6.4 0.00 0.00 0.00 24 1011.8
20260906021920 23 261 3.2 3.2 0.00 0.00 0.00 25 1011.8
20260906021420 24 321 1.6 3.2 0.00 0.00 0.00 25 1011.6
20260906020914 25 324 1.6 1.6 0.00 0.00 0.00 25 1011.8
20260906020409 25 299 1.6 3.2 0.00 0.00 0.00 24 1011.6
20260906015904 25 255 3.2 3.2 0.00 0.00 0.00 24 1011.8
20260906015403 25 273 4.8 6.4 0.00 0.00 0.00 23 1011.8
20260906014902 26 254 4.8 6.4 0.00 0.00 0.00 24 1011.8
20260906014357 26 242 6.4 6.4 0.00 0.00 0.00 24 1011.5
20260906013853 26 236 6.4 6.4 0.00 0.00 0.00 24 1011.6
20260906013349 26 202 6.4 9.7 0.00 0.00 0.00 24 1011.5
20260906012844 26 229 4.8 4.8 0.00 0.00 0.00 25 1011.5
20260906012338 26 276 3.2 3.2 0.00 0.00 0.00 25 1011.6
20260906011833 26 206 3.2 9.7 0.00 0.00 0.00 24 1011.6
20260906011327 27 240 6.4 9.7 0.00 0.00 0.00 23 1011.5
20260906010818 27 258 6.4 6.4 0.00 0.00 0.00 23 1011.5
20260906010314 27 231 3.2 4.8 0.00 0.00 0.00 23 1011.4
20260906005809 27 230 4.8 6.4 0.00 0.00 0.00 23 1011.6
20260906005308 27 223 8.0 11.3 0.00 0.00 0.00 23 1011.4
20260906004807 28 262 6.4 12.9 0.00 0.00 0.00 22 1011.4
20260906004307 28 264 6.4 14.5 0.00 0.00 0.00 23 1011.4
20260906003802 28 225 4.8 20.9 0.00 0.00 0.00 23 1011.3
20260906003257 29 290 3.2 4.8 0.00 0.00 0.00 22 1011.3
20260906002752 29 177 6.4 9.7 0.00 0.00 0.00 22 1011.4
20260906002247 29 179 6.4 14.5 0.00 0.00 0.00 22 1011.3
20260906001743 30 162 4.8 12.9 0.00 0.00 0.00 23 1011.2
20260906001237 30 233 6.4 9.7 0.00 0.00 0.00 22 1011.3
20260906000733 30 294 4.8 9.7 0.00 0.00 0.00 21 1011.2
20260906000234 30 251 9.7 11.3 0.00 0.00 0.00 24 1011.4
20260905235727 29 320 6.4 16.1 0.00 0.00 0.00 24 1011.3
20260905235227 30 340 4.8 12.9 0.00 0.00 0.00 24 1010.9
20260905234722 30 302 1.6 11.3 0.00 0.00 0.00 20 1011.1
20260905234217 30 341 6.4 11.3 0.00 0.00 0.00 23 1010.8
20260905233713 28 306 6.4 11.3 0.00 0.00 0.00 27 1010.7
20260905233212 28 41 14.5 16.1 0.00 0.00 0.00 25 1010.9
20260905232708 30 2 6.4 30.6 0.00 0.00 0.00 21 1010.9
20260905232203 29 32 6.4 11.3 0.00 0.00 0.00 21 1010.9
20260905231659 30 93 6.4 12.9 0.00 0.00 0.00 21 1010.9
20260905231154 29 15 4.8 12.9 0.00 0.00 0.00 21 1011.3
20260905230650 28 338 0.0 0.0 0.00 0.00 0.00 23 1010.9